Weather History for KPYX - August, 2013

Change the Weather History Date:

Friday, August 16, 2013

  Actual Average Record
Temperature  
Mean Temperature 76 °F -  
Max Temperature 89 °F 91 °F 104 °F (1983)
Min Temperature 64 °F 62 °F 54 °F (1992)
Cooling Degree Days 11    
Growing Degree Days 26 (Base 50)    
Moisture  
Dew Point 60 °F    
Average Humidity 58    
Maximum Humidity 94    
Minimum Humidity 29    
Precipitation  
Precipitation 0.00 in - - ()
Sea Level Pressure  
Sea Level Pressure 30.10 in    
Wind  
Wind Speed 8 mph (SE)    
Max Wind Speed 13 mph    
Max Gust Speed 17 mph    
Visibility 10 miles    
Events      
Averages and records for this station are not official NWS values.
T = Trace of Precipitation, MM = Missing Value Source: NWS Daily Summary

Daily Weather History Graph

Daily Weather History Graph

Search for Another Location

Airport or City:

Trip Planner

Search our weather history database for the weather conditions in past years. The results will help you decide how hot, cold, wet, or windy it might be!

Date:

Astronomy

Aug. 16, 2013 Rise Set
Actual Time 7:01 AM CDT 8:31 PM CDT
Civil Twilight 6:34 AM CDT 8:59 PM CDT
Nautical Twilight 6:01 AM CDT 9:31 PM CDT
Astronomical Twilight 5:27 AM CDT 10:06 PM CDT
Moon 4:49 PM CDT (8/16) 2:09 AM CDT (8/16)
Length of Visible Light 14h 24m
Length of Day
13h 30m
Waxing Gibbous, 75% of the Moon is Illuminated
Aug 16
Waxing Gibbous
Aug 20
Full
Aug 28
Last Quarter
Sep 5
New
Sep 12
First Quarter

Hourly Weather History & Observations

Time (CDT) Temp. Heat Index Dew Point Humidity Pressure Visibility Wind Dir Wind Speed Gust Speed Precip Events Conditions
12:15 AM 71.8 °F - 67.1 °F 85% 30.09 in 10.0 mi ESE 8.1 mph - N/A   Unknown
12:55 AM 70.3 °F - 67.1 °F 89% 30.07 in 10.0 mi SE 5.8 mph - N/A   Unknown
1:15 AM 70.0 °F - 67.1 °F 91% 30.08 in 7.0 mi ESE 5.8 mph - N/A   Unknown
1:35 AM 69.6 °F - 67.1 °F 92% 30.09 in 7.0 mi East 9.2 mph - N/A   Unknown
1:55 AM 69.4 °F - 67.1 °F 92% 30.08 in 7.0 mi East 9.2 mph - N/A   Unknown
2:15 AM 69.6 °F - 67.1 °F 92% 30.08 in 7.0 mi ESE 6.9 mph - N/A   Unknown
2:35 AM 69.1 °F - 67.1 °F 93% 30.07 in 7.0 mi ESE 6.9 mph - N/A   Unknown
2:55 AM 69.1 °F - 67.3 °F 94% 30.08 in 7.0 mi ESE 8.1 mph - N/A   Unknown
3:15 AM 68.9 °F - 67.1 °F 94% 30.08 in 5.0 mi SE 9.2 mph - N/A   Unknown
3:35 AM 68.9 °F - 66.7 °F 93% 30.08 in 7.0 mi SE 9.2 mph - N/A   Unknown
4:15 AM 68.9 °F - 65.7 °F 89% 30.08 in 7.0 mi SE 5.8 mph - N/A   Unknown
4:35 AM 68.4 °F - 64.8 °F 88% 30.07 in 10.0 mi SE 5.8 mph - N/A   Unknown
4:55 AM 68.0 °F - 63.0 °F 84% 30.07 in 10.0 mi ESE 4.6 mph - N/A   Unknown
5:15 AM 67.1 °F - 62.6 °F 85% 30.06 in 10.0 mi SSE 3.5 mph - N/A   Unknown
6:55 AM 64.8 °F - 61.3 °F 89% 30.09 in 10.0 mi SSE 5.8 mph - N/A   Unknown
10:55 AM 80.2 °F 81.5 °F 63.0 °F 55% 30.13 in 10.0 mi South 11.5 mph - N/A   Unknown
11:15 AM 81.5 °F 82.4 °F 61.5 °F 51% 30.13 in 10.0 mi South 11.5 mph - N/A   Unknown
11:35 AM 82.4 °F 82.5 °F 59.0 °F 45% 30.13 in 10.0 mi South 10.4 mph - N/A   Unknown
11:55 AM 82.9 °F 83.2 °F 59.9 °F 46% 30.13 in 10.0 mi South 9.2 mph - N/A   Unknown
12:15 PM 83.3 °F 83.2 °F 59.0 °F 44% 30.12 in 10.0 mi SSE 8.1 mph - N/A   Unknown
12:35 PM 84.2 °F 83.0 °F 55.6 °F 37% 30.12 in 10.0 mi South 9.2 mph - N/A   Unknown
12:55 PM 85.1 °F 83.8 °F 55.4 °F 36% 30.12 in 10.0 mi SSE 9.2 mph - N/A   Unknown
1:15 PM 86.0 °F 84.2 °F 54.1 °F 33% 30.12 in 10.0 mi ESE 5.8 mph - N/A   Unknown
1:35 PM 86.2 °F 84.4 °F 54.3 °F 33% 30.11 in 10.0 mi SE 10.4 mph - N/A   Unknown
1:55 PM 86.7 °F - 52.7 °F 31% 30.11 in 10.0 mi ESE 6.9 mph - N/A   Unknown
2:15 PM 86.7 °F - 52.7 °F 31% 30.10 in 10.0 mi SE 5.8 mph - N/A   Unknown
2:35 PM 87.6 °F 85.5 °F 53.8 °F 31% 30.10 in 10.0 mi SE 9.2 mph - N/A   Unknown
2:55 PM 87.6 °F 85.5 °F 53.8 °F 31% 30.10 in 10.0 mi SSE 10.4 mph - N/A   Unknown
3:15 PM 88.2 °F 86.1 °F 54.0 °F 31% 30.10 in 10.0 mi East 4.6 mph 17.3 mph N/A   Unknown
3:35 PM 88.5 °F 86.5 °F 54.3 °F 31% 30.09 in 10.0 mi SE 6.9 mph - N/A   Unknown
3:55 PM 88.0 °F 85.9 °F 53.4 °F 31% 30.09 in 10.0 mi ESE 5.8 mph - N/A   Unknown
4:15 PM 88.7 °F 86.5 °F 53.2 °F 30% 30.09 in 10.0 mi ESE 5.8 mph - N/A   Unknown
4:35 PM 88.7 °F - 52.5 °F 29% 30.09 in 10.0 mi ESE 4.6 mph - N/A   Unknown
4:55 PM 88.7 °F 86.5 °F 54.0 °F 30% 30.08 in 10.0 mi ESE 8.1 mph - N/A   Unknown
5:15 PM 88.9 °F 86.5 °F 53.1 °F 29% 30.08 in 10.0 mi ENE 4.6 mph - N/A   Unknown
5:35 PM 88.7 °F 86.5 °F 54.0 °F 30% 30.08 in 10.0 mi ENE 5.8 mph - N/A   Unknown
5:55 PM 88.7 °F - 52.9 °F 29% 30.08 in 10.0 mi ESE 8.1 mph - N/A   Unknown
6:15 PM 87.4 °F 86.1 °F 56.5 °F 35% 30.08 in 10.0 mi ESE 8.1 mph - N/A   Unknown
6:35 PM 86.9 °F 85.9 °F 57.9 °F 37% 30.08 in 10.0 mi ESE 11.5 mph - N/A   Unknown
6:55 PM 85.1 °F 85.0 °F 60.1 °F 43% 30.08 in 10.0 mi SE 11.5 mph - N/A   Unknown
7:15 PM 84.2 °F 84.6 °F 61.5 °F 46% 30.08 in 10.0 mi ESE 11.5 mph - N/A   Unknown
7:35 PM 83.1 °F 83.7 °F 61.7 °F 48% 30.08 in 10.0 mi ESE 12.7 mph - N/A   Unknown
7:55 PM 81.5 °F 82.4 °F 61.9 °F 51% 30.09 in 10.0 mi SE 11.5 mph - N/A   Unknown
8:15 PM 79.9 °F - 62.2 °F 55% 30.09 in 10.0 mi SE 10.4 mph - N/A   Unknown
8:35 PM 78.3 °F - 62.6 °F 58% 30.10 in 10.0 mi SE 10.4 mph - N/A   Unknown
8:55 PM 77.2 °F - 62.4 °F 60% 30.10 in 10.0 mi SE 9.2 mph - N/A   Unknown
9:15 PM 76.1 °F - 62.6 °F 63% 30.11 in 10.0 mi SE 9.2 mph - N/A   Unknown
9:35 PM 75.4 °F - 62.8 °F 65% 30.12 in 10.0 mi SE 10.4 mph - N/A   Unknown
9:55 PM 75.2 °F - 63.1 °F 66% 30.12 in 10.0 mi SE 9.2 mph - N/A   Unknown
10:15 PM 74.7 °F - 63.0 °F 67% 30.13 in 10.0 mi SE 9.2 mph - N/A   Unknown
10:35 PM 73.8 °F - 63.1 °F 69% 30.14 in 10.0 mi SE 9.2 mph - N/A   Unknown
10:55 PM 73.6 °F - 62.6 °F 68% 30.14 in 10.0 mi SE 9.2 mph - N/A   Unknown
11:15 PM 73.0 °F - 62.8 °F 70% 30.15 in 10.0 mi SE 9.2 mph - N/A   Unknown
11:35 PM 72.9 °F - 62.8 °F 71% 30.15 in 10.0 mi SE 11.5 mph - N/A   Unknown
11:55 PM 72.3 °F - 63.1 °F 73% 30.16 in 10.0 mi SE 11.5 mph - N/A   Unknown